Location: Frydek-Mistek
(49.6830°N, 18.3330°E)
Time: 12:15:07
(UTC+02:00)

Courier 1B Rocket - All Passes

Search period start: 29 May 2015 00:00
Search period end: 08 June 2015 00:00
Orbit: 920 x 1202 km, 28.3° (Epoch: 26 May)

Date Brightness Start Highest point End Pass type
(mag) Time Alt. Az. Time Alt. Az. Time Alt. Az.
29 May - 11:04:13 10° S 11:05:01 10° SSE 11:05:58 10° SSE daylight
29 May - 12:53:32 10° SSW 12:57:12 14° S 13:00:52 10° SSE daylight
29 May - 14:47:38 10° SSW 14:49:24 11° SSW 14:51:00 10° S daylight
30 May - 11:53:06 10° SSW 11:56:28 13° S 11:59:56 10° SSE daylight
30 May - 13:45:37 10° SSW 13:48:41 13° S 13:51:40 10° SSE daylight
31 May - 10:53:12 10° S 10:55:46 12° S 10:58:28 10° SSE daylight
31 May - 12:44:28 10° SSW 12:47:59 14° S 12:51:28 10° SSE daylight
01 Jun - 11:43:45 10° SSW 11:47:15 14° S 11:50:49 10° SSE daylight
01 Jun - 13:37:46 10° SSW 13:39:28 11° SSW 13:40:59 10° S daylight
02 Jun - 10:43:27 10° SSW 10:46:33 13° S 10:49:45 10° SSE daylight
02 Jun - 12:35:52 10° SSW 12:38:44 12° S 12:41:34 10° SSE daylight
03 Jun - 09:43:47 10° S 09:45:53 11° SSE 09:48:07 10° SSE daylight
03 Jun - 11:34:49 10° SSW 11:38:02 13° S 11:41:18 10° SSE daylight
04 Jun - 10:34:14 10° SSW 10:37:21 13° S 10:40:33 10° SSE daylight
04 Jun - 12:28:33 10° SSW 12:29:32 10° SSW 12:30:21 10° S daylight
05 Jun - 09:34:05 10° SSW 09:36:41 12° S 09:39:24 10° SSE daylight
05 Jun - 11:26:27 10° SSW 11:28:51 12° S 11:31:12 10° S daylight
06 Jun - 08:34:49 10° S 08:36:04 11° SSE 08:37:27 10° SSE daylight
06 Jun - 10:25:27 10° SSW 10:28:10 12° S 10:30:55 10° SSE daylight
07 Jun - 09:24:57 10° SSW 09:27:31 12° S 09:30:09 10° SSE daylight
